User: anonymous   Login
Location: Bangkok
(13.7500°N, 100.5170°E)
Time: 10:54:59
(UTC+07:00)
Language:

Cosmos 1898 Rocket - Orbit

View from above orbital plane
View from above orbital plane
View from above satellite
View from above satellite

Ground track
Ground track

The orbit data is extracted from the following two-line orbital elements,

1 18586U 87098B   16044.17695550  .00000131  00000-0  53485-4 0  9997
2 18586  74.0070 117.5849 0022288 288.9877  99.2182 14.36701493476998
Epoch (UTC): 13 February 2016 04:14:48
Eccentricity: 0.0022288
inclination: 74.0070°
perigee height: 753 km
apogee height: 785 km
right ascension of ascending node: 117.5849°
argument of perigee: 288.9877°
revolutions per day: 14.36701493
mean anomaly at epoch: 99.2182°
orbit number at epoch: 47699

The dashed part of the orbit path shows where the satellite is in the earth's shadow,  

DLR